Syracuse, NY

8:38 PM EST on December 14, 2017 (GMT -0500)
Syracuse Hancock International

Weather History for KSYR - June, 2013

Change the Weather History Date:

Thursday, June 13, 2013

  Actual Average Record
Temperature  
Mean Temperature 59 °F 66 °F  
Max Temperature 61 °F 77 °F 94 °F (1949)
Min Temperature 56 °F 56 °F 43 °F (1995)
Degree Days  
Heating Degree Days 6 2  
Month to date heating degree days 47 40  
Since 1 June heating degree days 47 40  
Since 1 July heating degree days 6133 6630  
Cooling Degree Days 0 3  
Month to date cooling degree days 20 33  
Year to date cooling degree days 72 63  
Since 1 June cooling degree days 20 33  
Growing Degree Days 8 (Base 50)    
Moisture  
Dew Point 57 °F    
Average Humidity 89    
Maximum Humidity 100    
Minimum Humidity 78    
Precipitation  
Precipitation 1.23 in 0.11 in 1.32 in (2000)
Month to date precipitation 4.64 1.42  
Year to date precipitation 18.58 15.35  
Snow  
Snow 0.00 in 0.00 in 0.00 in (2002)
Month to date snowfall 0.0 0.0  
Since 1 June snowfall 0.0 0.0  
Since 1 July snowfall 115.4 123.8  
Snow Depth 0.00 in    
Sea Level Pressure  
Sea Level Pressure 29.65 in    
Wind  
Wind Speed 10 mph (ENE)    
Max Wind Speed 22 mph    
Max Gust Speed 28 mph    
Visibility 7 miles    
Events Rain    
T = Trace of Precipitation, MM = Missing Value Source: NWS Daily Summary

Daily Weather History Graph

Daily Weather History Graph

Search for Another Location

Airport or City:

Trip Planner

Search our weather history database for the weather conditions in past years. The results will help you decide how hot, cold, wet, or windy it might be!

Date:

Astronomy

Jun. 13, 2013 Rise Set
Actual Time 5:24 AM EDT 8:45 PM EDT
Civil Twilight 4:48 AM EDT 9:20 PM EDT
Nautical Twilight 4:03 AM EDT 10:06 PM EDT
Astronomical Twilight 3:06 AM EDT 11:03 PM EDT
Moon 10:04 AM EDT (6/13) 11:43 PM EDT (6/13)
Length of Visible Light 16h 31m
Length of Day
15h 20m
Waxing Crescent, 21% of the Moon is Illuminated
Jun 13
Waxing Crescent
Jun 16
First Quarter
Jun 23
Full
Jun 30
Last Quarter
Jul 8
New

Hourly Weather History & Observations

Time (EDT) Temp. Dew Point Humidity Pressure Visibility Wind Dir Wind Speed Gust Speed Precip Events Conditions
12:54 AM 60.1 °F 54.0 °F 80% 29.78 in 10.0 mi SE 6.9 mph - N/A   Overcast
1:54 AM 60.1 °F 54.0 °F 80% 29.76 in 10.0 mi ESE 4.6 mph - N/A   Overcast
2:54 AM 60.1 °F 55.0 °F 83% 29.74 in 10.0 mi East 3.5 mph - N/A   Overcast
3:54 AM 59.0 °F 55.0 °F 87% 29.71 in 10.0 mi ESE 5.8 mph - N/A   Overcast
4:54 AM 59.0 °F 54.0 °F 83% 29.68 in 10.0 mi East 5.8 mph - N/A   Overcast
5:54 AM 59.0 °F 54.0 °F 83% 29.67 in 10.0 mi East 5.8 mph - 0.00 in Rain Light Rain
6:54 AM 60.1 °F 55.0 °F 83% 29.64 in 8.0 mi ENE 8.1 mph - 0.00 in Rain Light Rain
7:38 AM 60.8 °F 55.4 °F 82% 29.65 in 2.5 mi East 6.9 mph - 0.03 in Rain Rain
7:45 AM 60.8 °F 55.4 °F 82% 29.64 in 3.0 mi East 8.1 mph - 0.05 in Rain Rain
7:54 AM 60.1 °F 55.9 °F 86% 29.63 in 6.0 mi ENE 8.1 mph - 0.06 in Rain Light Rain
8:30 AM 60.8 °F 57.2 °F 88% 29.62 in 2.0 mi ENE 9.2 mph - 0.04 in Rain Heavy Rain
8:38 AM 59.0 °F 57.2 °F 94% 29.62 in 1.8 mi ENE 10.4 mph - 0.11 in Rain Heavy Rain
8:45 AM 59.0 °F 57.2 °F 94% 29.62 in 2.0 mi ENE 10.4 mph - 0.15 in Rain Heavy Rain
8:54 AM 59.0 °F 57.0 °F 93% 29.61 in 4.0 mi ENE 11.5 mph - 0.18 in Rain Light Rain
9:08 AM 59.0 °F 57.2 °F 94% 29.62 in 4.0 mi ENE 11.5 mph - 0.02 in Rain Rain
9:16 AM 59.0 °F 57.2 °F 94% 29.62 in 4.0 mi East 10.4 mph - 0.03 in Rain Rain
9:28 AM 59.0 °F 57.2 °F 94% 29.62 in 1.8 mi East 12.7 mph - 0.09 in Rain Heavy Rain
9:54 AM 59.0 °F 55.9 °F 90% 29.59 in 2.0 mi ENE 15.0 mph - 0.40 in Rain Heavy Rain
10:14 AM 59.0 °F 57.2 °F 94% 29.61 in 3.0 mi East 13.8 mph 23.0 mph 0.08 in Rain Heavy Rain
10:25 AM 59.0 °F 57.2 °F 94% 29.61 in 4.0 mi East 13.8 mph - 0.11 in Rain Rain
10:44 AM 59.0 °F 59.0 °F 100% 29.61 in 4.0 mi East 13.8 mph 21.9 mph 0.15 in Rain Rain
10:54 AM 59.0 °F 59.0 °F 100% 29.60 in 3.0 mi East 17.3 mph 23.0 mph 0.17 in Rain Rain
10:59 AM 59.0 °F 59.0 °F 100% 29.61 in 2.5 mi East 17.3 mph 23.0 mph 0.02 in Rain Heavy Rain
11:06 AM 59.0 °F 59.0 °F 100% 29.61 in 3.0 mi East 16.1 mph 23.0 mph 0.06 in Rain Heavy Rain
11:54 AM 59.0 °F 59.0 °F 100% 29.58 in 4.0 mi East 17.3 mph 23.0 mph 0.20 in Rain Rain
12:54 PM 59.0 °F 59.0 °F 100% 29.57 in 6.0 mi East 16.1 mph 23.0 mph 0.10 in Rain Light Rain
1:46 PM 59.0 °F 59.0 °F 100% 29.58 in 7.0 mi East 15.0 mph 25.3 mph 0.03 in Rain Light Rain
1:54 PM 59.0 °F 59.0 °F 100% 29.57 in 6.0 mi ENE 17.3 mph 27.6 mph 0.04 in Rain Rain
2:47 PM 60.8 °F 60.8 °F 100% 29.58 in 7.0 mi East 16.1 mph 26.5 mph 0.05 in Rain Light Rain
2:54 PM 60.1 °F 60.1 °F 100% 29.57 in 7.0 mi ENE 17.3 mph 24.2 mph 0.05 in Rain Light Rain
3:54 PM 60.1 °F 60.1 °F 100% 29.60 in 10.0 mi ENE 12.7 mph 21.9 mph 0.00 in Rain Light Rain
4:19 PM 60.8 °F 60.8 °F 100% 29.62 in 9.0 mi ENE 13.8 mph 20.7 mph 0.00 in Rain Light Rain
4:54 PM 60.1 °F 60.1 °F 100% 29.62 in 10.0 mi ENE 10.4 mph - 0.01 in Rain Light Rain
5:14 PM 60.8 °F 60.8 °F 100% 29.63 in 10.0 mi ENE 10.4 mph - 0.01 in Rain Light Rain
5:54 PM 60.1 °F 60.1 °F 100% 29.63 in 10.0 mi ENE 11.5 mph - 0.01 in Rain Light Rain
6:07 PM 59.0 °F 59.0 °F 100% 29.64 in 10.0 mi East 11.5 mph - 0.00 in Rain Light Rain
6:54 PM 59.0 °F 59.0 °F 100% 29.66 in 10.0 mi ENE 11.5 mph - 0.01 in Rain Light Rain
7:43 PM 59.0 °F 57.2 °F 94% 29.69 in 10.0 mi NNE 5.8 mph - 0.00 in   Light Drizzle
7:54 PM 59.0 °F 57.0 °F 93% 29.68 in 10.0 mi NNE 5.8 mph - 0.00 in   Overcast
8:54 PM 59.0 °F 55.9 °F 90% 29.70 in 10.0 mi NNE 6.9 mph - N/A   Overcast
9:54 PM 59.0 °F 55.0 °F 87% 29.71 in 10.0 mi North 5.8 mph - N/A   Mostly Cloudy
10:06 PM 57.2 °F 55.4 °F 94% 29.72 in 10.0 mi NNW 5.8 mph - N/A   Mostly Cloudy
10:54 PM 57.9 °F 55.0 °F 90% 29.73 in 10.0 mi NNW 5.8 mph - N/A   Mostly Cloudy
11:54 PM 57.9 °F 55.0 °F 90% 29.74 in 10.0 mi Calm Calm - N/A   Overcast